DW6561 Weather Reports


Display with metric or nautical units.
time (UTC)temp
F
wind
direction
speed
MPH
gust
MPH
rain 1hr
in
rain 24hr
in
rain mn
in
humidity
%
barometer
mb
20260906031537 66 100 0.0 0.0 0.00 0.00 0.00 47 1016.3
20260906030017 67 100 0.0 0.0 0.00 0.00 0.00 48 1016.2
20260906024516 68 100 0.0 0.0 0.00 0.00 0.00 47 1016.2
20260906023024 68 100 0.0 0.0 0.00 0.00 0.00 48 1016.0
20260906021532 69 100 0.0 0.0 0.00 0.00 0.00 47 1015.9
20260906020040 70 100 0.0 0.0 0.00 0.00 0.00 46 1016.0
20260906014504 71 100 0.0 0.0 0.00 0.00 0.00 47 1015.9
20260906013003 71 100 0.0 0.0 0.00 0.00 0.00 46 1015.9
20260906011510 72 100 0.0 0.0 0.00 0.00 0.00 44 1016.0
20260906010008 72 100 0.0 1.0 0.00 0.00 0.00 42 1015.9
20260906004512 72 94 0.0 1.0 0.00 0.00 0.00 42 1016.1
20260906003003 73 158 0.0 0.0 0.00 0.00 0.00 43 1016.1
20260906001503 73 158 0.0 3.0 0.00 0.00 0.00 41 1016.2
20260906000004 74 139 0.0 2.0 0.00 0.00 0.00 43 1016.2
20260905234508 74 129 0.0 2.0 0.00 0.00 0.00 43 1016.2
20260905233018 74 135 0.0 1.0 0.00 0.00 0.00 44 1016.3
20260905231506 74 186 0.0 3.0 0.00 0.00 0.00 43 1016.2
20260905230003 75 80 0.0 0.0 0.00 0.00 0.00 40 1016.3
20260905224507 75 327 0.0 0.0 0.00 0.00 0.00 43 1016.4
20260905223025 75 138 0.0 0.0 0.00 0.00 0.00 43 1016.4
20260905221510 75 126 0.0 0.0 0.00 0.00 0.00 41 1016.4
20260905220005 75 122 0.0 0.0 0.00 0.00 0.00 44 1016.4
20260905214508 75 343 0.0 0.0 0.00 0.00 0.00 45 1016.7
20260905213012 74 323 0.0 0.0 0.00 0.00 0.00 44 1017.0
20260905211533 74 337 0.0 0.0 0.00 0.00 0.00 45 1017.1
20260905210011 74 302 0.0 0.0 0.00 0.00 0.00 44 1017.2
20260905204503 74 344 0.0 1.0 0.00 0.00 0.00 44 1017.2
20260905203010 74 168 0.0 0.0 0.00 0.00 0.00 45 1017.2
20260905201516 73 304 0.0 0.0 0.00 0.00 0.00 46 1017.3
20260905200030 72 279 0.0 2.0 0.00 0.00 0.00 48 1017.4
20260905194517 71 333 0.0 1.0 0.00 0.00 0.00 49 1017.6
20260905193008 69 215 0.0 0.0 0.00 0.00 0.00 51 1017.8
20260905191511 68 151 0.0 0.0 0.00 0.00 0.00 54 1017.8
20260905190024 68 322 0.0 0.0 0.00 0.00 0.00 56 1017.9
20260905184534 66 305 0.0 0.0 0.00 0.00 0.00 58 1018.0
20260905183028 66 308 0.0 0.0 0.00 0.00 0.00 56 1018.1
20260905181514 66 320 0.0 0.0 0.00 0.00 0.00 56 1018.3
20260905180016 65 320 0.0 0.0 0.00 0.00 0.00 60 1018.5
20260905174516 64 63 0.0 0.0 0.00 0.00 0.00 61 1018.6
20260905173029 63 330 0.0 0.0 0.00 0.00 0.00 63 1018.7
20260905171542 62 324 0.0 1.0 0.00 0.00 0.00 63 1018.5
20260905170017 61 324 0.0 0.0 0.00 0.00 0.00 64 1018.5
20260905164504 61 314 0.0 0.0 0.00 0.00 0.00 65 1018.4
20260905163003 61 314 0.0 0.0 0.00 0.00 0.00 65 1018.3
20260905161508 60 314 0.0 1.0 0.00 0.00 0.00 66 1018.1
20260905160026 60 296 0.0 1.0 0.00 0.00 0.00 67 1017.8
20260905154532 59 295 0.0 2.0 0.00 0.00 0.00 68 1017.8
20260905153012 58 161 0.0 0.0 0.00 0.00 0.00 69 1017.8
20260905151506 57 161 0.0 0.0 0.00 0.00 0.00 71 1018.1
20260905150005 57 161 0.0 0.0 0.00 0.00 0.00 73 1018.1
20260905144523 56 161 0.0 0.0 0.00 0.00 0.00 76 1018.0
20260905143024 55 161 0.0 0.0 0.00 0.00 0.00 75 1017.9
20260905141522 55 161 0.0 0.0 0.00 0.00 0.00 73 1017.9
20260905140008 55 161 0.0 0.0 0.00 0.00 0.00 71 1017.8
20260905134512 55 161 0.0 0.0 0.00 0.00 0.00 71 1017.8
20260905133022 55 161 0.0 0.0 0.00 0.00 0.00 69 1017.4
20260905131531 55 161 0.0 0.0 0.00 0.00 0.00 69 1017.4
20260905130027 55 161 0.0 0.0 0.00 0.00 0.00 70 1017.3
20260905124519 55 161 0.0 0.0 0.00 0.00 0.00 70 1017.2
20260905123018 55 161 0.0 0.0 0.00 0.00 0.00 71 1017.3
20260905121518 56 161 0.0 0.0 0.00 0.00 0.00 73 1017.0
20260905120032 56 161 0.0 0.0 0.00 0.00 0.00 73 1017.0
20260905114531 56 161 0.0 0.0 0.00 0.00 0.00 69 1016.7
20260905113019 57 161 0.0 0.0 0.00 0.00 0.00 69 1016.5
20260905111523 57 161 0.0 0.0 0.00 0.00 0.00 69 1016.5
20260905110028 57 161 0.0 0.0 0.00 0.00 0.00 68 1016.4
20260905104525 57 161 0.0 0.0 0.00 0.00 0.00 67 1016.4
20260905103036 57 161 0.0 0.0 0.00 0.00 0.00 66 1016.5
20260905101502 57 161 0.0 0.0 0.00 0.00 0.00 65 1016.4
20260905100003 58 161 0.0 0.0 0.00 0.00 0.00 64 1016.5
20260905094506 58 161 0.0 0.0 0.00 0.00 0.00 62 1016.5
20260905093003 58 161 0.0 0.0 0.00 0.00 0.00 62 1016.5
20260905091504 58 173 0.0 0.0 0.00 0.00 0.00 63 1016.5
20260905090004 58 329 0.0 0.0 0.00 0.00 0.00 63 1016.3
20260905084506 58 329 0.0 0.0 0.00 0.00 0.00 63 1016.1
20260905083012 59 329 0.0 0.0 0.00 0.00 0.00 62 1016.1
20260905081509 59 329 0.0 0.0 0.00 0.00 0.00 61 1016.0
20260905080003 59 329 0.0 0.0 0.00 0.00 0.00 61 1015.8
20260905074504 59 329 0.0 0.0 0.00 0.00 0.00 61 1015.7
20260905073010 59 329 0.0 1.0 0.00 0.00 0.00 61 1015.6
20260905071515 59 344 0.0 1.0 0.00 0.00 0.00 61 1015.6
20260905070015 59 291 0.0 0.0 0.00 0.00 0.00 62 1015.5
20260905064504 58 239 0.0 0.0 0.00 0.00 0.00 63 1015.4
20260905063004 58 239 0.0 0.0 0.00 0.00 0.00 63 1015.3
20260905061507 59 229 0.0 1.0 0.00 0.00 0.00 63 1015.2
20260905060004 59 49 0.0 0.0 0.00 0.00 0.00 62 1015.1
20260905054524 59 49 0.0 0.0 0.00 0.00 0.00 61 1015.1
20260905053004 60 49 0.0 1.0 0.00 0.00 0.00 59 1015.0
20260905051508 60 17 0.0 0.0 0.00 0.00 0.00 58 1014.8
20260905050013 61 17 0.0 0.0 0.00 0.00 0.00 55 1015.0
20260905044515 62 17 0.0 0.0 0.00 0.00 0.00 49 1014.9
20260905043006 62 17 0.0 0.0 0.00 0.00 0.00 43 1014.7
20260905041528 63 17 0.0 0.0 0.00 0.00 0.00 44 1014.9
20260905040017 63 17 0.0 0.0 0.00 0.00 0.00 43 1014.9
20260905034526 64 17 0.0 0.0 0.00 0.00 0.00 42 1014.9
20260905033019 64 17 0.0 0.0 0.00 0.00 0.00 43 1014.7